STARLINK-1354 (45562 NORAD) Tracking and Keplerian Element Data

This shows tracking and keplerian element data for the satellite.

Feedback or suggestion? Click here.




ElementValue
Catalog45562
NameSTARLINK-1354
Epoch Orbit626
Epoch Day149.16667824
Epoch Year2020
RAAN224.9922
Inclination52.9973
Eccentricity7.68E-05
Argument of Perigee84.9254
Mean Anonmoly99.9965
Mean Motion15.6276271
Decay Rate0.00040801
L11 45562U 20025AH 20149.16667824 .00040801 00000-0 44901-3 0 9991
L22 45562 52.9973 224.9922 0000768 84.9254 99.9965 15.62762710 6260

Live tracking and technical data element details for STARLINK-1354 (NORAD 45562). STARLINK-1354 can be tracked NOW for your location showing map with azimuth and elevation plus other details from your city location.

Track the satellite on the map from your city or location and see movement details for azimuth, elevation, latitude, longitude, range, height, and movement on the map or in text.







IsCatalogInMostPopularTable: catalog: 45562, numindb: 7
Update: records affected: 1



GetName: 45562 STARLINK-1354

Hit Count: updated at: Sat, 30 May 2020 16:17:07 GMT